www.pogodaiklimat.ru

Погода и климат >> Архив погоды >> Литва >> ?ilut?


ПОГОДА в ?ilut?

  • Прогноз погоды в ?ilut?
  • Монитор погоды в ?ilut?
  • Климат города

АРХИВ ПОГОДЫ в ?ilut?

Время (UTC), дата Ветер
(напр.,м/с)
 
Видим.   Явления Облачность Т
(С)
Тd
(С)
f
(%)
Тe
(С)
Тes
(С)
Комфортность P
(гПа)
Po
(гПа)
Тmin
(С)
Tmax
(С)
R
(мм)
R24
(мм)
S
(см)
12 15.09 Ю 4-6
{9}
20 км 9/3 300 м
[Cb cap Ac cuf]
+17.7 +12.9 73 +17 +19 1016.4 1015.8
18 15.09 ЮЗ 2-4
{10}
19 км в посл. час ливневой дождь 6/6 300 м
[Cb cap]
+12.5 +10.6 88 +12 +12 1016.7 1017.0 +19.3 1
00 16.09 З 3-4
{8}
20 км 3/0
[]
+11.8 +8.5 80 +10 +10 1018.2 1017.6
06 16.09 З 3-6
{7}
19 км {дождь} 4/4 1000 м
[Cu med, cong]
+13.7 +8.9 73 +13 +13 1020.9 1021.0 +8.0 0.0
12 16.09 З 6-11
{11}
20 км 8/6 1000 м
[Cu med, cong]
+17.0 +8.4 57 +16 +17 1022.6 1022.0
18 16.09 штиль 0-1
{7}
20 км 9/9 1500 м
[Sc diur, vesp]
+12.7 +8.9 78 +12 +12 1022.6 1023.0 +17.4
00 17.09 Ю 2-3
{4}
20 км 9/9 1500 м
[]
+11.9 +10.3 90 +11 +11 1021.2 1020.6
06 17.09 Ю 3-5
{5}
20 км {дождь} 9/0
[Ac cuf]
+12.9 +10.6 86 +11 +12 1019.5 1020.0 +9.2 0.0
12 17.09 ЮЗ 7-9
{12}
20 км 9/0
[Ac cuf]
+19.2 +12.4 65 +20 +20 1017.9 1017.3
18 17.09 З 3-4
{9}
20 км 9/0
[Ac cuf]
+16.5 +12.9 79 +16 +16 1018.2 1018.0 +20.4
00 18.09 Ю 2-3
{4}
6000 м дымка 1/0
[]
+14.0 +13.2 95 +13 +13 1018.6 1018.0
06 18.09 штиль 0-2
{3}
9000 м дымка {туман} 8/0
[Ac trans Ci sp]
+13.0 +12.3 96 +12 +13 1019.2 1019.0 +12.0
12 18.09 ЮЗ 4-5
{6}
20 км 3/0
[Ci fib]
+24.4 +9.9 40 +25 +29 комфорт 1018.2 1017.6
18 18.09 штиль 0
{3}
10 км 3/0
[Ci fib]
+16.3 +12.5 78 +16 +16 1016.7 1017.0 +24.8
00 19.09 ЮВ 3-4
{5}
20 км ясно +14.7 +11.6 82 +14 +14 1015.3 1014.7
06 19.09 Ю 2-4
{4}
15 км 1/0
[Ci fib]
+15.0 +12.6 86 +15 +16 1014.8 1015.0 +12.7
12 19.09 З 5-8
{9}
19 км 1/0
[Ci fib]
+21.6 +15.6 69 +25 +28 комфорт 1016.3 1015.7
18 19.09 ЮЗ 1-2
{6}
300 м туман 3/0
[Ci fib]
+14.3 +13.5 95 +15 +15 1017.6 1018.0 +22.7
00 20.09 Ю 2-2
{2}
400 м слабый ливневой дождь 10/0
[]
+12.0 +11.7 98 +11 +11 1017.6 1017.0
06 20.09 ЮВ 3-4
{5}
20 км ясно +14.3 +12.3 88 +13 +14 1017.2 1017.0 +10.4
12 20.09 З 3-5
{8}
19 км 6/0
[Cs]
+23.1 +15.7 63 +27 +32 душно 1017.1 1016.5
18 20.09 СЗ 1-2
{3}
20 км 4/0
[Ac trans]
+17.4 +15.1 86 +18 +18 1015.8 1016.0 +24.2
00 21.09 ЮВ 1-2
{2}
7000 м туман местами ясно +11.8 +11.3 97 +12 +12 1015.7 1015.1
06 21.09 ЮВ 4-7
{7}
20 км 9/0
[Ac cuf Ci fib]
+17.8 +13.7 77 +18 +18 1013.1 1013.0 +11.4

 

Местоположение метеостанции ?ilut? (Литва): широта 55.35 долгота 21.45 высота над уровнем моря 56 м.

В архиве по умолчанию представлена погода в ?ilut? за последнюю неделю. Архивные данные за месяц целиком и за предыдущие месяцы, начиная с января 2011 года, Вы можете получить, выбрав интересующий диапазон дат из раскрывающегося списка и нажав кнопку "Ввод!".


*Определитесь, кто Вы:
робот инопланетянин человек

Внимание! Время в таблицах - всемирное. Для получения местного времени необходимо прибавить поправку, которая в ?ilut? равна 2 ч.

Смотрите также архив погоды в соседних городах и на ближайших метеорологических станциях:

Погода в Nidoje (Литва) (27 км)
Погода в Советске (Калининградская область, Россия) (43 км)
Погода в Рыбачьем (Калининградская область, Россия) (44 км)
Погода в Klaip?da (Литва) (49 км)
Погода в Laukuvos (Литва) (58 км)
Погода в Черняховске (Калининградская область, Россия) (83 км)
Погода в Tel?i? (Литва) (85 км)
Погода в Калининграде (Калининградская область, Россия) (90 км)
Погода в Пионерском (Калининградская область, Россия) (91 км)
Погода в Рыбном Порту (Калининградская область, Россия) (96 км)

Пояснения к столбцам:

Ветер - указаны скорость ветра в м/с - средняя за 10 мин, порывы в срок и между сроками (в фигурных скобках) и направление, откуда дует ветер: С - северный, СВ - северо-восточный, В - восточный, ЮВ - юго-восточный, Ю - южный, ЮЗ - юго-западный, З - западный, СЗ - северо-западный.
Видимость - горизонтальная дальность видимости в метрах или километрах. При видимости от 1 до 10 км при отсутствии осадков обычно наблюдается дымка, при ухудшении видимости до 1 км и менее - туман. В сухую погоду видимость может ухудшаться дымом, пылью или мглою.
Явления - указаны атмосферные явления, наблюдавшиеся в срок или в последний час перед сроком; фигурными скобками обозначены явления, наблюдавшиеся между сроками (за 1-3 часа до срока); квадратными скобками обозначены град или гололедные отложения с указанием их диаметра в мм.
Облачность - указаны через наклонную черту общая и нижняя облачность в баллах и высота нижней границы облаков в метрах; квадратными скобками обозначены формы облаков: Ci - перистые, Cs - перисто-слоистые, Cc - перисто-кучевые, Ac - высококучевые, As - высокослоистые, Sc - слоисто-кучевые, Ns - слоисто-дождевые, Cu - кучевые, Cb - кучево-дождевые. Подробнее классификацию облаков см. в Атласе облаков (PDF).
T - Температура воздуха - температура, измеренная на высоте 2 м над землей.
Td - Температура точки росы - температура, при понижении до которой содержащийся в воздухе водяной пар достигнет насыщения.
f - Относительная влажность воздуха - влажноcть воздуха, измеренная на высоте 2 м над землей.
Te - Эффективная температура - температура, которую ощущает одетый по сезону человек в тени. Характеристика душности погоды. При расчете учитывается влияние влажности воздуха и скорости ветра на теплоощущения человека.
Tes - Эффективная температура на солнце - температура, которую ощущает человек, с поправкой на солнечный нагрев. Характеристика знойности погоды. Зависит от высоты солнца над горизонтом, облачности и скорости ветра. Ночью, в пасмурную погоду, а также при ветре 12 м/с и более поправка равна нулю.
P - Атмосферное давление - приведенное к уровню моря атмосферное давление.
Po - Атмосферное давление - измеренное на уровне метеостанции атмосферное давление.
Tmin - Минимальная температура - минимум температуры воздуха на высоте 2 м над землей.
Tmax - Максимальная температура - максимум температуры воздуха на высоте 2 м над землей.
R - Количество осадков - Количество выпавших осадков за период времени, мм. При наведении курсора мыши на число - период времени, за который выпало указанное количество осадков.
R24 - Количество осадков - Количество выпавших осадков за 24 часа, мм.
S - Снежный покров - Высота снежного покрова, см. При наведении курсора мыши на число - состояние снежного покрова и степень покрытия местности в баллах.